RH
3 3 3 3 3 3 4 4 4 4 4 5 5 5 5 6 6 6 6 7 7 9 9 10 11 10 10 10 12 14 17 21 24 27 29 31 33 37 42 48 53 55 53 51 48 47 48 53 64 76 85 92 96 98 100 99 97 98 99 99 98 95 91 83 74 76 84 85 79 74 68 61 59 59 58 64 78 92 105 108 104 106 107 100 99
3 3 3 3 3 3 3 3 3 3 4 3 4 4 4 5 5 5 5 6 6 7 8 9 10 10 11 11 10 10 11 13 16 18 22 24 25 27 28 32 36 41 45 46 45 44 44 46 52 61 73 84 93 96 98 98 96 95 95 96 96 96 94 90 80 77 85 93 90 82 75 68 64 64 65 63 61 66 82 95 100 104 105 105 105
3 3 3 3 3 3 3 4 3 3 4 3 3 4 4 4 4 4 4 5 5 5 5 7 8 9 10 11 11 11 10 10 11 12 14 17 19 21 21 23 24 26 30 34 36 37 38 40 45 51 58 68 81 91 96 97 95 92 91 91 93 93 93 91 85 80 85 95 97 89 81 76 72 69 68 71 70 65 63 68 79 91 96 102 108
4 4 4 4 4 4 4 4 4 3 4 4 4 4 3 4 4 4 4 4 4 4 4 5 5 6 7 8 10 11 12 11 10 10 10 11 12 15 16 17 18 19 21 22 24 27 29 32 36 41 47 54 64 77 87 94 95 91 88 87 88 90 91 90 86 82 85 94 101 97 87 80 78 76 73 72 74 75 72 67 64 67 74 86 99
4 4 4 4 4 4 4 4 4 4 4 4 4 4 4 4 4 4 4 4 4 4 4 4 4 4 5 6 7 8 9 11 11 11 10 9 9 10 11 12 13 14 15 16 17 18 20 23 27 31 36 43 52 62 72 82 89 90 87 85 84 87 89 91 89 84 84 91 99 102 97 88 83 81 79 77 76 76 80 81 76 68 62 63 74
4 4 4 4 4 4 4 4 4 4 4 4 4 4 4 4 4 4 4 4 4 4 4 4 4 5 5 5 5 6 6 7 9 10 10 10 9 9 9 9 10 11 11 12 13 13 14 16 18 22 25 31 39 48 57 66 74 81 84 85 84 84 85 87 88 86 86 90 97 103 102 96 91 90 88 85 83 81 81 84 86 86 78 67 60
3 4 4 4 4 4 4 4 4 4 4 4 4 4 4 4 4 4 4 4 4 5 5 5 5 5 5 5 5 5 5 5 6 7 7 8 8 8 8 8 8 9 10 10 11 11 12 13 13 15 17 20 26 34 43 52 59 66 74 79 83 84 82 82 82 82 84 87 95 103 105 102 98 99 99 96 93 89 86 83 84 88 92 89 78
4 4 4 4 4 4 4 4 4 4 4 4 4 4 4 4 4 4 4 4 4 4 4 5 5 5 5 5 5 5 5 5 5 5 5 6 6 6 7 7 7 7 7 8 9 10 11 12 13 13 13 14 16 21 28 36 45 53 60 68 76 80 81 79 77 77 77 80 89 98 105 107 105 104 104 103 101 98 94 91 90 91 97 102 100
3 4 4 4 4 4 4 4 4 4 4 4 4 4 4 4 4 4 4 4 4 4 4 4 4 5 5 5 5 5 5 5 5 5 5 5 5 5 5 6 6 6 6 6 7 8 9 10 11 12 13 13 14 15 17 22 29 37 46 55 63 70 74 75 75 75 73 73 79 87 98 105 107 108 107 106 106 105 104 106 105 102 103 107 108
3 4 4 4 4 4 4 4 4 4 4 4 4 4 4 4 4 4 4 4 4 4 4 4 4 4 5 5 5 5 5 5 5 5 5 5 5 5 5 5 5 5 6 6 6 6 6 7 9 10 11 12 13 14 15 16 18 22 29 39 49 57 62 66 68 71 71 71 72 77 86 94 100 106 108 107 108 108 108 110 110 106 105 107 108
3 3 3 4 4 4 4 4 4 4 4 4 4 4 4 4 4 4 4 4 4 4 4 4 4 4 4 4 5 5 5 5 5 5 5 5 5 5 5 5 5 5 5 5 6 6 5 6 6 7 8 9 11 12 14 15 16 16 18 23 31 39 48 54 59 63 66 67 69 72 76 81 89 99 105 108 110 109 107 106 105 105 105 106 105
3 4 3 4 4 4 4 4 4 4 4 4 4 4 4 4 4 4 4 4 4 4 4 4 4 4 4 4 4 4 5 5 5 5 5 5 5 5 5 5 5 5 5 5 6 6 6 6 6 6 6 7 8 9 11 12 14 15 16 18 20 24 30 38 46 53 58 60 62 66 69 72 78 88 98 106 110 109 106 105 104 103 104 105 103
4 4 4 4 4 4 4 4 4 4 4 4 4 4 4 4 4 4 4 4 4 4 5 5 4 4 4 4 4 4 4 5 5 5 5 5 5 4 5 5 5 5 6 6 6 6 6 6 6 6 6 6 6 7 8 9 10 12 13 15 17 19 21 24 30 37 46 51 55 58 62 66 71 78 88 97 105 109 109 108 104 101 103 105 103
4 4 4 4 4 4 4 4 4 4 4 4 4 4 4 4 4 4 4 4 4 4 4 5 5 5 5 5 5 5 4 4 4 5 5 5 5 4 4 4 5 6 6 6 6 6 6 6 6 6 5 6 6 6 6 7 8 9 10 11 13 15 18 20 22 25 30 37 44 50 56 63 68 73 80 87 94 102 106 107 106 103 103 102 102
4 4 4 4 4 4 4 4 4 4 4 4 4 4 4 4 4 4 4 4 4 4 4 4 4 5 5 5 5 5 5 4 4 4 5 5 4 4 4 5 5 6 6 6 6 6 6 6 6 6 5 5 5 5 6 6 6 7 7 8 9 11 13 16 18 21 23 26 31 37 47 59 67 72 77 81 85 89 95 100 104 105 106 104 103
4 4 4 4 4 4 4 4 4 4 4 4 4 4 4 4 4 4 4 4 4 4 4 4 4 4 4 4 5 5 5 4 4 4 4 4 4 4 5 5 5 6 6 6 6 6 6 5 5 6 6 6 5 5 5 6 6 6 6 6 7 8 9 11 13 17 21 23 25 27 34 46 58 67 75 80 83 85 87 90 93 97 102 103 103
4 4 4 4 4 4 4 4 4 4 4 4 4 4 4 4 4 4 4 4 4 4 4 4 4 4 4 4 4 4 4 4 4 4 4 3 4 4 4 4 5 6 6 6 6 6 6 5 5 5 5 6 6 5 5 5 5 6 6 6 6 6 7 8 10 12 15 18 22 25 28 34 44 54 65 76 84 86 86 87 87 88 91 94 97
4 4 4 4 4 4 4 4 4 4 4 4 4 4 4 4 4 4 4 4 4 4 4 4 4 4 4 5 4 4 4 4 4 4 4 4 3 3 3 4 4 5 5 6 6 5 6 6 5 6 6 6 6 6 5 5 5 5 6 5 6 6 6 7 8 9 10 13 16 21 25 30 34 40 49 62 75 85 90 93 92 92 92 90 90
4 4 4 4 4 4 4 4 4 4 4 4 4 4 4 4 4 4 4 4 4 5 4 4 5 4 4 5 4 4 5 4 4 4 4 4 3 3 4 4 4 4 4 4 5 5 5 5 5 5 5 6 6 6 5 5 4 4 5 5 6 6 6 7 8 8 8 9 11 14 19 24 30 35 40 47 59 73 86 95 100 102 102 99 95
4 4 4 4 4 4 4 4 4 4 4 4 4 4 4 4 4 4 4 4 4 5 5 5 5 5 5 5 5 5 5 5 5 4 4 4 4 4 4 4 4 4 4 4 4 4 4 5 4 5 5 5 5 5 5 5 4 4 4 5 5 6 7 7 7 8 8 8 8 10 12 17 23 29 34 39 47 58 71 86 97 104 108 108 106
4 4 4 4 4 4 4 4 4 4 4 4 4 4 4 4 4 4 5 5 5 5 5 5 5 5 5 5 5 5 5 5 5 4 4 4 4 4 4 5 4 4 4 4 4 4 4 4 4 4 4 4 5 5 5 4 4 4 4 4 5 5 6 7 7 8 8 8 8 8 9 11 15 20 26 32 39 47 56 70 85 97 105 109 109
4 4 5 4 4 4 4 4 4 4 4 4 4 4 4 4 4 4 5 5 5 5 5 5 6 5 5 5 5 5 5 5 5 5 4 4 4 4 4 4 4 4 4 4 4 4 4 4 4 4 4 4 4 4 4 4 4 4 4 4 5 5 6 7 7 8 8 8 8 9 9 9 10 12 17 23 31 39 47 57 71 85 96 104 108
5 5 5 5 5 5 4 4 4 4 4 4 4 4 4 4 5 5 5 5 5 5 5 6 6 6 5 5 5 5 5 5 5 4 4 4 4 4 4 4 4 4 4 4 4 4 4 3 3 4 3 4 4 4 4 4 4 4 4 4 4 5 6 6 7 8 8 8 8 9 9 10 10 10 11 15 20 29 38 48 60 74 87 98 105
5 5 5 5 5 5 5 4 4 4 4 4 4 5 4 4 5 5 5 5 6 6 6 6 6 6 5 5 5 5 5 5 5 4 4 4 4 4 4 4 4 4 4 4 4 4 4 3 4 4 3 4 4 3 4 4 4 4 4 4 4 4 5 6 7 7 8 8 8 8 9 9 10 10 10 11 13 18 26 36 48 62 76 88 97
5 5 5 5 5 5 5 5 5 5 5 5 5 5 5 5 5 5 5 6 6 6 6 6 6 6 5 5 5 5 5 5 5 4 4 4 4 4 4 4 4 4 4 4 4 4 4 4 4 4 4 4 4 3 3 3 4 4 4 4 5 5 5 5 6 7 8 8 8 8 9 9 10 10 11 11 11 13 16 23 33 44 59 72 83
5 4 5 5 5 5 5 5 5 5 5 5 5 5 5 5 5 5 5 6 6 6 6 6 6 6 5 5 5 5 5 5 5 5 4 4 4 4 4 4 4 4 4 4 4 4 4 4 4 4 4 4 4 4 4 3 4 4 4 4 5 5 5 5 5 6 7 7 8 8 8 9 9 10 10 11 11 12 12 15 20 28 39 53 66
4 4 5 5 5 5 5 5 5 5 6 6 6 6 6 6 6 6 6 6 6 5 6 6 6 6 5 5 5 5 5 5 5 5 4 4 4 4 4 4 4 4 4 4 4 4 4 4 4 4 4 4 4 4 4 4 4 4 4 5 5 5 5 5 5 6 6 6 7 8 8 9 9 9 10 10 11 12 12 13 14 18 24 33 45
5 5 5 5 5 5 5 5 5 6 6 6 6 6 6 6 6 6 6 6 6 5 5 6 6 6 5 5 5 5 5 5 5 5 4 4 4 4 4 4 4 4 4 3 3 4 4 4 4 4 4 4 4 4 4 4 4 4 4 4 5 5 5 5 5 6 6 6 6 7 7 9 9 10 10 10 11 11 12 13 13 14 16 21 28
5 5 5 5 5 5 5 5 5 6 6 6 6 6 6 7 7 7 7 7 6 5 5 5 6 6 5 5 5 5 5 5 5 4 4 4 4 4 4 4 4 4 4 4 3 3 3 4 4 4 4 4 4 4 4 4 4 4 4 4 5 5 5 6 6 6 6 6 6 6 7 8 9 10 10 10 10 11 11 12 13 14 15 17 19
5 5 5 5 5 5 5 5 5 6 6 6 6 6 6 6 6 6 6 6 6 6 5 5 6 6 5 5 5 5 5 5 5 4 4 4 4 4 4 4 4 4 4 4 4 3 4 4 4 4 4 4 4 4 4 4 4 4 4 4 5 5 5 6 6 6 6 6 6 6 7 7 8 9 10 10 11 11 11 12 13 13 14 16 17
5 5 5 5 5 5 5 6 6 6 6 6 6 6 5 6 6 6 6 6 6 5 5 5 6 6 5 5 5 5 5 5 5 4 4 4 4 4 4 4 4 4 4 4 4 4 4 4 4 4 4 4 4 4 4 4 4 4 4 4 5 5 6 6 6 6 6 6 6 6 7 7 8 9 10 10 11 11 11 12 12 13 14 15 16
5 5 5 5 5 5 6 6 6 6 6 6 6 6 6 5 5 6 7 7 6 5 5 5 6 6 6 5 5 6 6 5 5 5 5 4 4 4 5 5 4 5 5 4 4 4 4 4 4 4 4 4 4 4 4 4 4 4 4 4 5 5 5 6 6 6 6 6 6 6 7 7 8 8 10 10 11 12 13 13 14 14 14 14 15
5 5 5 5 5 5 6 6 6 6 7 7 6 6 6 6 5 5 6 7 7 6 5 5 5 6 6 5 5 6 6 5 5 5 4 5 5 4 5 5 5 5 5 4 4 4 4 4 4 4 4 4 4 4 4 4 4 4 4 4 4 5 5 6 6 6 6 6 7 7 7 8 8 8 9 10 11 12 13 13 14 15 15 15 15
5 5 5 5 5 5 5 6 6 6 6 6 6 6 6 6 5 5 5 6 7 7 6 5 5 6 7 6 5 5 6 5 5 5 5 5 5 5 5 5 5 5 5 4 5 4 4 4 4 4 4 4 4 4 5 4 4 4 4 5 5 5 5 6 6 6 6 6 7 7 7 8 8 8 9 10 11 11 12 13 14 14 15 15 16
5 5 5 5 5 5 5 5 6 6 6 6 6 6 6 6 5 6 5 6 7 7 7 6 5 5 6 6 5 5 6 5 5 5 5 5 5 5 5 5 5 5 5 5 5 5 4 4 4 4 4 4 4 4 4 4 5 5 4 5 5 5 5 6 6 6 6 6 7 7 7 8 8 8 9 9 10 11 12 12 13 14 15 16 16
5 5 5 5 5 5 5 6 6 6 6 6 5 5 6 6 5 6 6 6 6 6 7 7 6 5 6 6 6 6 6 5 5 5 5 5 5 5 5 5 5 5 5 5 5 5 4 4 5 4 4 4 4 4 4 4 5 5 5 5 5 5 6 6 6 6 7 7 7 7 7 8 8 9 9 10 10 11 12 13 14 14 15 16 17
5 4 5 5 5 5 6 6 6 6 6 6 6 5 6 6 6 6 6 6 6 6 6 6 6 5 6 6 6 6 5 5 5 5 5 5 5 5 5 5 5 5 5 5 5 5 5 5 5 4 5 5 5 4 4 4 5 5 5 5 5 5 6 6 6 7 7 7 7 7 8 8 9 9 10 10 10 11 12 12 13 14 15 16 16
5 5 5 5 5 5 6 6 6 7 7 6 6 6 6 6 6 6 6 6 6 6 5 6 6 6 6 6 6 6 6 5 5 5 5 5 5 5 5 5 5 5 5 5 5 5 5 5 5 5 5 5 5 5 5 5 5 5 5 5 5 6 6 6 7 7 7 7 8 8 8 9 9 9 10 11 11 11 12 12 13 14 15 15 16
5 5 5 5 5 5 5 6 6 7 7 6 6 6 6 6 6 6 6 6 6 6 5 6 6 6 6 6 6 6 6 6 6 5 5 5 5 5 5 5 6 6 5 5 6 5 5 5 5 5 5 5 5 5 5 5 5 5 5 5 5 6 6 7 7 7 8 8 8 8 9 9 10 10 11 11 12 12 13 13 14 14 15 15 16
5 5 5 5 5 5 6 6 6 6 6 6 6 6 6 6 6 6 6 6 6 6 5 5 5 6 6 6 6 6 6 6 6 5 5 5 6 5 5 5 6 6 6 6 6 6 6 6 5 5 5 5 5 5 5 5 5 5 5 5 6 6 6 7 7 8 8 8 9 9 9 10 10 11 11 12 12 13 13 14 14 15 15 16 16
4 4 4 4 5 5 6 6 7 7 6 6 6 6 6 6 6 6 6 6 6 6 6 6 6 6 6 6 6 6 6 6 6 6 6 6 5 6 6 6 6 6 6 6 6 6 6 6 6 6 6 6 5 6 6 5 5 5 6 6 6 6 7 7 7 8 8 9 9 9 9 10 10 11 11 12 13 13 14 15 15 16 16 17 17
4 4 4 4 4 5 5 6 6 6 6 6 6 6 6 6 6 6 6 6 6 6 6 6 6 6 6 6 6 6 6 6 6 6 6 6 6 6 6 6 6 6 6 6 7 7 7 6 6 6 6 6 6 6 6 6 6 6 6 6 6 7 7 7 7 8 8 9 9 9 10 10 11 11 12 12 13 14 15 16 16 17 17 18 19
4 4 4 4 5 5 5 6 6 6 6 6 6 6 6 6 6 6 6 6 6 6 6 6 6 6 6 7 7 7 7 6 6 6 6 6 6 6 6 6 6 6 6 6 7 7 7 7 7 7 7 7 7 7 7 7 7 7 7 7 7 7 7 8 8 8 8 9 9 10 10 11 11 11 12 13 13 14 15 15 16 17 18 19 19
4 4 4 4 5 5 5 6 6 6 6 6 6 6 6 6 6 6 6 6 6 6 6 6 6 6 7 7 7 8 7 7 7 7 7 7 7 6 6 7 6 6 6 7 7 7 7 7 8 7 7 8 7 7 7 7 7 7 7 7 7 8 8 8 8 9 9 9 10 10 10 11 11 12 12 13 13 14 14 15 16 17 18 18 19
4 4 4 5 5 5 5 6 6 6 6 6 6 6 6 6 6 7 6 6 6 6 6 7 6 6 7 7 7 8 8 8 8 7 7 7 7 7 7 7 7 7 7 7 7 7 8 8 8 8 8 8 8 8 8 8 8 8 8 8 8 9 9 9 9 10 10 10 10 10 11 11 12 12 13 13 14 14 15 15 16 17 17 18 19
5 5 5 5 5 5 5 5 5 5 5 5 5 6 6 6 6 6 6 6 6 6 6 6 6 6 6 6 7 8 8 8 8 8 8 8 8 8 8 8 8 8 8 7 7 8 8 8 9 9 9 9 9 9 9 9 9 9 9 9 10 10 10 10 11 11 11 11 11 12 12 12 13 13 14 14 15 15 16 16 17 18 18 19 20
5 5 5 5 5 5 5 5 5 5 5 5 5 6 6 6 6 6 6 6 6 6 6 6 6 6 6 6 6 7 8 8 9 9 9 9 9 9 9 9 8 8 8 8 8 8 8 8 9 9 10 10 10 10 10 10 10 10 10 10 10 11 11 12 12 12 13 13 13 13 13 14 14 14 15 15 16 16 17 17 18 19 19 20 21
5 5 5 5 5 5 5 5 5 5 5 5 5 5 5 6 6 6 6 6 6 6 6 6 6 6 6 6 6 7 7 8 8 8 9 10 10 10 10 10 9 9 9 9 9 9 9 9 9 10 10 11 11 11 11 11 11 11 11 11 11 11 12 12 12 13 14 14 15 15 16 16 17 17 17 17 18 18 19 19 20 20 21 22 22
5 5 5 5 5 5 5 5 5 5 5 5 5 5 5 5 5 5 6 6 6 6 7 7 7 7 7 7 7 7 7 7 8 8 9 9 10 10 11 11 11 10 10 10 10 10 10 10 10 10 10 11 12 12 12 12 12 12 12 12 12 12 12 12 13 13 14 14 15 16 16 17 18 19 19 20 20 21 21 22 22 22 22 23 23
5 5 5 5 5 5 5 5 5 5 5 5 5 5 5 5 5 5 6 6 6 7 7 7 7 7 7 8 8 8 8 8 8 8 8 9 9 10 11 11 11 12 11 11 11 11 11 11 11 11 11 12 12 13 13 14 14 14 14 14 14 14 14 13 13 14 14 15 15 15 16 17 17 18 18 19 20 20 21 21 22 22 22 23 23
5 5 5 5 5 5 5 5 5 5 5 5 5 5 5 5 6 6 6 6 6 7 7 7 8 8 8 8 8 9 9 9 9 9 8 8 9 9 10 11 12 12 12 12 13 13 13 12 12 12 12 12 13 13 14 14 15 15 16 16 16 16 16 16 16 15 15 15 16 16 16 17 17 17 18 18 19 19 20 20 20 20 20 21 21
Wind_Speed
87 88 89 90 91 92 94 96 97 99 100 101 102 104 106 107 109 110 111 113 115 118 120 123 124 125 125 126 127 128 129 131 132 133 133 134 134 135 136 137 138 138 138 137 136 135 134 134 134 136 137 138 138 139 139 139 138 137 137 137 136 135 134 133 130 126 124 125 125 125 126 125 124 123 125 128 131 135 137 137 135 133 131 131 131
85 85 86 87 88 89 91 92 94 95 96 97 99 100 102 104 106 107 109 110 112 114 116 119 121 123 125 126 126 127 128 129 130 132 133 134 134 134 135 136 136 137 137 137 137 136 135 135 135 136 137 139 140 141 141 141 141 140 139 139 138 137 137 136 134 130 127 127 128 128 127 127 125 124 124 125 128 131 135 138 139 138 136 134 133
81 83 83 84 85 87 88 90 91 92 93 94 95 97 98 100 102 104 106 108 109 110 112 114 116 119 121 124 126 127 127 128 129 130 131 133 134 135 135 135 135 136 136 136 136 136 135 135 135 136 137 138 139 141 143 144 144 143 142 141 140 140 139 139 137 134 131 130 130 130 129 128 127 126 125 125 126 128 131 134 137 139 139 138 136
78 79 80 82 83 85 86 87 89 90 91 92 92 94 95 97 98 100 102 104 106 107 108 110 112 114 116 119 122 124 126 128 128 128 129 130 131 133 134 135 135 135 135 135 135 135 135 134 134 135 136 137 138 140 142 143 145 145 144 143 142 142 141 141 140 138 135 133 133 133 132 131 129 128 128 127 127 127 128 131 134 136 137 138 138
76 77 78 79 81 83 84 85 87 88 89 90 91 91 92 93 95 96 97 99 101 103 104 106 108 110 112 114 117 120 123 125 127 128 128 128 128 129 131 132 133 134 134 135 135 135 134 134 133 134 134 135 137 138 140 142 143 144 144 144 144 143 143 143 142 140 138 136 135 135 135 134 132 130 130 129 129 128 128 129 131 133 134 136 137
73 73 75 76 78 80 81 83 84 85 86 88 89 90 90 91 91 92 93 95 96 98 101 103 105 107 109 110 112 115 118 121 123 126 127 128 127 127 127 128 130 131 132 133 134 134 134 134 133 133 133 134 135 136 138 140 141 143 144 144 144 144 143 143 143 142 140 138 137 138 138 136 134 133 132 131 130 130 130 130 131 131 132 133 134
72 71 72 73 74 75 77 79 80 82 83 84 85 87 87 88 88 89 89 91 93 95 98 100 102 104 106 108 109 111 114 116 118 121 123 125 126 126 126 126 126 127 128 130 131 132 133 133 133 133 133 133 133 135 137 138 140 141 142 143 143 144 144 144 143 142 141 140 138 138 139 138 137 135 134 134 133 132 132 132 132 131 131 131 133
69 68 69 70 71 72 73 74 75 77 78 80 81 82 83 84 85 85 85 86 88 91 94 96 99 101 103 105 106 108 110 112 113 115 117 119 121 123 124 125 125 125 125 126 127 129 130 131 132 132 133 133 133 134 135 137 138 139 140 141 142 143 143 143 143 143 142 140 139 139 139 139 139 137 136 136 135 134 133 133 132 132 131 132 132
66 65 66 67 68 69 70 71 72 73 74 75 76 78 79 80 81 81 82 82 84 86 89 91 94 97 99 101 102 104 106 107 109 110 112 114 115 117 119 122 123 124 124 124 124 125 127 128 130 130 132 133 133 134 134 135 137 138 139 140 141 142 142 142 143 142 142 141 139 139 139 139 139 139 138 137 135 135 135 135 134 134 134 134 134
63 63 63 64 65 66 68 69 69 69 70 72 73 75 76 76 77 78 78 79 80 82 84 86 89 91 94 96 98 100 102 103 105 107 108 109 111 113 115 116 118 120 121 122 123 123 124 125 126 128 129 130 131 132 134 135 135 136 137 139 140 141 142 142 142 142 142 141 139 139 139 139 138 138 138 137 136 137 137 137 136 136 137 136 136
63 62 63 62 62 63 65 66 66 66 67 69 71 72 73 74 74 75 76 76 77 78 80 82 84 86 88 90 93 95 97 99 101 102 104 106 108 109 111 112 113 114 116 118 119 121 122 123 123 125 126 128 129 130 131 133 134 135 135 137 139 140 141 142 142 142 142 141 139 139 138 138 137 137 138 138 138 139 139 139 138 138 139 138 137
62 62 62 62 61 61 62 63 63 64 65 66 67 69 70 71 72 73 74 74 75 76 77 79 80 82 83 85 87 89 91 94 96 98 100 102 104 105 106 107 109 110 111 112 114 117 119 121 122 122 124 126 127 128 129 130 131 132 134 135 137 138 139 140 141 141 141 141 140 139 138 137 136 136 137 138 139 139 140 140 140 140 140 140 138
62 60 60 60 60 60 60 61 62 63 64 64 65 66 67 69 70 71 72 73 74 75 76 77 78 79 80 81 83 85 86 88 90 93 96 98 100 101 101 102 104 106 108 109 111 112 114 116 118 120 121 123 124 126 127 128 129 130 132 133 135 136 138 139 139 140 140 141 140 139 138 137 136 135 136 137 139 140 141 141 141 141 141 141 140
61 59 59 59 58 58 59 59 61 62 63 64 64 64 65 66 68 68 69 70 72 73 74 75 77 78 79 79 80 81 83 85 86 88 91 93 95 96 96 96 98 101 104 106 108 109 111 112 114 116 117 119 120 122 124 126 127 129 130 130 131 133 135 136 137 138 139 139 139 138 137 137 136 135 136 137 138 140 140 141 141 141 141 141 142
59 59 59 58 57 57 58 58 60 61 62 63 63 63 64 64 65 66 67 68 69 70 72 73 75 76 77 78 79 80 82 83 84 86 87 89 91 92 91 92 94 96 99 102 104 106 107 109 110 111 113 115 116 118 120 122 124 126 127 128 129 130 131 133 134 135 136 137 137 136 136 136 137 136 136 137 138 139 139 140 141 142 142 143 143
59 59 59 58 57 57 58 58 59 60 61 62 62 63 63 63 64 64 65 66 67 68 69 70 72 74 75 76 77 79 81 82 83 84 85 86 87 88 88 89 90 92 94 97 99 102 103 105 106 107 108 110 112 114 116 118 120 122 123 124 125 127 128 129 131 132 134 135 135 135 134 135 136 137 137 137 138 138 139 140 141 142 142 142 142
60 60 59 58 58 58 58 59 59 60 60 60 61 62 62 62 62 62 63 64 65 65 66 67 69 70 72 74 75 76 78 80 82 83 84 84 84 84 85 86 87 89 91 93 95 97 99 101 102 103 104 106 108 111 112 114 116 117 119 120 121 123 124 126 128 130 131 132 133 134 134 134 135 136 136 137 137 138 139 139 139 140 141 141 141
60 60 59 58 57 57 58 58 59 59 59 59 59 60 61 61 61 61 61 62 63 63 64 65 66 67 69 71 72 74 75 77 79 81 82 83 83 83 82 83 84 86 88 90 92 94 96 98 99 100 100 101 104 107 109 110 111 112 113 115 117 118 119 121 125 128 129 130 131 132 133 134 134 135 135 136 137 138 138 138 138 138 139 140 140
61 59 58 57 56 56 57 57 57 57 58 58 58 59 59 59 60 60 60 60 61 62 62 63 64 65 66 67 69 70 72 74 75 77 79 80 81 81 81 81 82 84 85 87 89 91 94 96 97 98 98 99 101 103 105 107 106 106 107 109 111 113 114 117 121 124 126 128 129 130 132 132 133 134 135 135 136 136 137 137 138 138 138 139 139
60 58 57 56 56 56 56 56 56 56 56 57 57 57 57 58 58 59 58 59 59 60 60 61 62 64 64 65 66 67 68 70 73 74 75 76 77 78 79 80 81 83 84 84 86 88 90 93 95 96 97 97 99 101 102 103 102 101 101 102 104 107 110 114 117 119 122 125 127 128 129 130 132 133 134 134 135 135 136 136 137 138 138 138 138
58 57 56 55 55 55 55 55 55 54 54 55 55 56 55 55 57 57 57 57 58 58 59 59 60 62 63 63 63 64 64 67 69 71 71 72 73 74 76 78 80 81 82 83 84 85 87 89 91 93 94 94 96 98 99 100 99 97 95 95 97 101 105 110 112 115 118 121 123 125 126 128 130 131 132 133 134 134 134 135 136 137 138 138 138
56 55 54 54 54 54 54 54 53 53 53 53 54 54 53 53 54 55 56 56 57 57 57 57 58 60 61 61 61 61 62 63 66 68 68 68 70 71 72 74 76 78 80 82 83 84 84 85 86 87 89 90 92 94 96 96 96 94 93 92 93 96 100 104 107 110 114 117 119 121 123 125 127 129 130 131 132 132 133 133 134 136 137 137 138
55 54 53 53 53 52 52 52 51 51 51 51 52 53 52 52 52 53 54 54 55 56 56 56 57 58 59 59 59 59 60 61 63 64 65 65 66 67 68 70 73 75 77 80 81 82 82 82 83 83 84 85 87 89 90 91 92 92 91 91 92 93 95 98 102 106 110 114 116 117 119 121 124 126 127 128 129 130 131 132 133 134 136 137 138
54 53 52 51 51 51 51 50 50 49 49 49 50 51 51 52 52 52 52 53 54 55 54 54 56 57 58 58 57 56 57 59 61 61 62 63 64 64 64 66 69 71 74 76 78 79 80 80 80 81 81 82 83 84 84 85 87 88 88 89 90 91 92 95 98 102 106 110 112 113 115 118 121 123 125 126 127 128 129 131 132 134 135 137 138
53 52 51 50 50 50 50 49 48 47 47 47 48 49 50 50 50 50 50 51 52 53 52 53 54 56 57 57 55 54 55 57 58 59 60 61 61 61 62 63 66 67 70 72 74 75 76 77 78 78 79 80 81 80 79 79 80 83 85 87 88 89 91 93 95 99 102 106 108 109 111 114 117 120 122 124 125 126 128 129 131 133 134 136 137
53 52 50 49 49 49 49 48 47 47 46 46 47 48 48 48 48 48 48 49 50 51 50 51 52 54 55 55 54 53 54 55 56 57 58 59 58 59 60 61 62 64 66 68 70 71 72 73 74 76 77 78 78 78 76 75 75 77 81 83 85 87 90 92 93 96 100 102 104 106 108 110 113 116 119 121 123 124 126 127 129 131 132 134 136
53 51 50 49 49 48 48 48 47 46 45 45 46 46 47 47 47 47 46 47 49 48 48 48 51 53 54 53 52 52 53 53 54 55 56 56 56 56 58 59 59 61 62 64 65 66 68 70 71 72 74 75 75 75 74 73 73 75 77 80 82 85 88 90 91 94 97 99 101 102 104 106 109 112 115 117 120 122 123 125 126 128 130 132 134
52 50 49 48 48 47 47 47 46 46 45 44 45 45 45 45 46 46 46 47 48 48 46 46 48 51 52 51 51 51 51 51 53 53 52 53 53 54 55 56 57 58 59 60 61 63 64 66 68 69 71 71 72 73 72 72 72 73 74 77 80 83 85 87 88 91 94 96 98 99 100 102 105 108 110 113 115 118 120 122 124 125 127 129 131
51 50 48 48 47 47 46 46 45 45 44 44 44 44 44 44 44 45 45 46 48 48 46 44 46 49 50 49 48 49 49 49 51 51 50 50 51 51 52 53 54 55 56 57 58 60 61 63 65 66 68 68 69 70 70 70 70 70 71 73 76 79 82 84 86 89 91 93 94 96 97 99 101 104 106 108 111 113 115 118 120 122 124 126 128
51 50 48 47 47 46 46 45 44 43 43 43 43 43 43 42 43 44 45 45 46 48 47 44 44 48 49 47 46 47 47 47 49 49 48 48 48 48 49 50 51 52 53 54 56 57 58 60 62 63 65 66 67 68 68 68 69 68 68 69 72 76 79 82 84 87 89 90 91 92 94 96 98 100 102 105 106 108 110 113 115 118 120 122 124
52 50 48 47 46 46 45 45 44 43 42 42 43 43 43 41 40 42 44 46 46 46 46 44 43 46 49 47 45 45 46 46 46 46 46 46 46 46 46 47 48 49 50 51 52 54 55 57 58 60 62 63 65 65 66 66 66 66 65 66 69 72 76 79 82 84 86 87 87 89 90 92 94 96 99 101 102 104 106 108 110 113 115 118 120
51 50 49 48 46 45 44 44 44 43 42 42 42 43 43 42 40 38 40 45 47 46 45 43 42 44 47 47 44 43 45 45 45 44 44 45 44 44 44 45 45 46 47 48 49 50 52 53 55 57 59 60 62 63 63 64 65 65 64 65 67 69 72 75 78 81 83 84 85 86 87 89 91 93 95 97 99 100 102 103 105 108 110 113 115
50 49 49 48 46 45 44 43 42 42 42 42 41 42 42 43 42 38 36 40 45 47 46 43 41 42 46 46 43 42 43 44 44 43 43 43 42 42 42 43 43 44 45 45 46 47 49 50 52 54 56 57 59 60 61 62 63 63 63 63 65 67 69 72 76 78 80 81 82 83 85 86 88 90 92 94 96 97 99 101 102 104 106 108 110
50 49 48 47 46 45 44 42 41 40 40 41 41 41 41 42 42 40 36 36 40 44 46 44 40 39 43 45 43 40 41 43 42 42 41 41 41 41 41 41 42 42 43 43 43 44 46 47 48 50 52 54 55 57 58 60 61 61 62 62 63 65 67 70 73 75 77 79 80 81 83 84 86 87 89 91 93 95 96 98 99 101 102 104 105
50 49 48 47 46 45 44 42 41 40 39 39 40 41 41 41 40 39 37 36 37 39 42 44 41 37 39 42 42 39 40 42 41 40 40 40 40 40 40 40 40 41 41 41 41 42 43 44 45 47 48 50 52 54 55 57 58 59 60 61 62 63 65 68 71 73 75 76 78 79 81 82 83 85 86 88 90 91 93 94 96 97 98 100 101
50 49 48 47 46 45 44 43 42 41 39 39 39 39 40 40 39 37 36 36 36 36 37 40 41 37 36 39 40 39 39 40 40 39 39 39 39 39 39 39 39 39 39 39 39 40 40 41 43 44 45 47 49 50 52 53 55 56 57 59 60 62 64 66 68 71 72 74 75 77 78 80 81 82 83 85 86 88 89 91 92 94 95 97 98
50 49 48 47 46 45 44 43 42 42 41 40 40 39 39 38 38 36 35 35 36 35 34 36 38 38 36 36 37 38 38 38 38 38 37 38 38 38 37 37 37 37 37 38 38 38 39 39 40 41 42 44 45 47 49 50 51 53 54 56 58 60 62 64 66 68 70 72 73 74 76 77 78 80 81 82 84 85 86 88 89 91 92 94 95
50 49 48 47 46 45 44 43 42 42 41 40 40 40 39 38 37 35 34 34 34 34 34 33 35 36 36 35 36 36 36 37 37 37 36 37 37 37 36 36 36 36 36 36 36 37 37 37 38 39 40 41 42 44 45 47 48 50 51 53 55 57 59 61 64 66 67 69 70 72 73 74 76 77 79 80 81 82 84 85 86 88 89 90 91
50 48 48 47 46 45 44 43 42 41 40 40 40 39 39 38 36 34 34 34 34 34 33 33 33 34 34 35 35 35 35 36 36 36 36 35 36 36 36 35 35 35 35 35 35 35 36 36 36 37 38 38 40 41 42 43 45 47 48 50 52 54 57 59 61 63 64 66 68 69 71 72 73 75 76 77 79 80 81 82 83 84 85 87 88
49 48 47 47 46 44 43 42 42 41 40 39 39 39 38 37 36 34 33 33 34 34 33 33 32 33 33 34 35 35 35 35 35 36 35 35 35 35 35 35 35 35 34 34 34 35 35 35 35 36 36 37 38 39 40 41 42 44 46 48 50 52 54 56 58 60 62 64 65 67 68 69 71 72 73 75 76 77 78 79 80 81 82 83 84
48 47 47 46 45 44 43 42 41 40 40 38 38 38 37 37 36 35 34 33 34 34 34 33 33 32 32 33 34 35 35 35 35 35 35 35 35 35 35 35 35 35 34 34 34 34 34 34 34 35 35 36 36 37 38 39 40 42 44 46 48 50 52 54 56 58 60 61 63 64 66 67 68 69 71 72 73 74 75 76 77 78 79 80 81
47 46 45 45 44 44 43 41 40 40 39 38 37 36 36 36 36 36 35 34 34 34 35 34 34 33 32 33 34 35 35 35 35 35 35 35 35 35 35 35 35 35 34 34 34 34 34 34 34 34 34 35 35 36 37 38 39 40 42 44 46 48 50 52 54 56 58 60 61 62 63 64 65 67 68 69 70 71 73 74 75 76 77 78 79
47 46 45 44 43 43 42 41 40 39 39 38 37 36 36 36 36 36 35 35 34 34 35 35 35 34 33 33 33 35 36 35 35 35 35 35 35 35 34 35 35 35 35 34 34 35 34 34 34 34 34 34 35 35 36 37 38 39 40 42 44 46 48 50 52 54 56 57 59 60 61 62 63 64 66 67 68 69 70 71 73 74 75 76 76
46 45 44 43 43 42 41 40 39 38 38 37 37 37 36 36 36 36 36 35 35 34 35 35 35 34 34 33 33 34 36 36 35 35 35 36 35 35 35 35 35 35 35 35 35 35 35 35 35 35 34 34 35 35 35 36 36 38 39 40 41 43 45 47 49 51 53 55 56 58 59 60 61 63 64 65 66 67 68 69 70 71 72 73 74
45 44 43 43 42 41 40 40 39 38 37 36 36 36 36 36 36 36 36 36 36 35 34 35 35 35 34 33 33 34 35 36 36 35 36 36 36 36 35 35 35 35 35 35 35 35 35 35 35 35 35 34 34 35 35 35 36 37 38 39 40 41 42 44 46 48 50 52 53 55 56 58 59 60 61 62 63 64 65 66 67 68 69 69 70
45 44 42 42 41 40 40 39 38 38 37 36 35 35 35 35 36 36 36 37 37 36 35 34 34 34 34 33 33 33 34 35 35 35 35 36 36 36 36 35 35 35 35 35 35 34 34 35 35 35 35 35 35 35 35 35 36 36 37 38 39 40 41 42 44 45 47 49 51 52 54 55 56 57 58 59 60 61 62 63 64 65 65 66 66
46 45 43 42 41 40 39 39 38 37 37 36 36 35 35 35 35 35 35 36 36 36 35 34 33 33 34 34 33 32 32 33 34 34 35 35 35 35 35 36 35 35 35 35 35 34 34 34 35 35 35 35 35 35 35 35 35 36 36 37 38 39 40 41 42 43 45 46 48 49 51 52 53 54 55 56 57 58 59 60 61 61 62 62 63
45 44 44 43 42 41 40 39 38 38 37 37 36 36 36 35 35 35 35 34 34 35 35 34 33 33 33 33 33 32 32 33 33 33 34 34 35 35 35 35 35 35 35 35 35 35 34 34 34 35 35 35 35 35 35 35 35 36 36 36 37 38 39 40 41 42 43 44 45 46 48 49 50 51 52 53 54 55 56 57 57 58 59 60 61
44 43 43 43 42 42 41 40 39 39 38 38 37 37 37 36 36 35 34 34 33 33 34 34 34 33 32 32 33 33 32 33 33 33 33 33 34 34 34 35 35 35 35 35 35 35 35 34 34 34 35 35 35 34 35 35 35 35 36 36 37 37 38 39 40 41 42 43 44 45 46 47 48 49 50 51 52 52 53 54 55 56 57 58 59
43 42 42 42 41 41 41 40 40 39 39 39 39 38 37 37 36 36 35 34 33 33 33 33 34 34 33 32 32 33 33 33 33 33 33 33 33 34 34 34 35 35 35 35 35 35 35 35 35 34 34 34 35 34 34 34 35 35 35 36 36 37 37 38 39 39 40 41 42 43 44 45 46 47 48 49 49 50 51 52 53 54 54 55 56
42 41 41 40 40 40 40 40 40 40 40 39 39 38 37 37 36 36 36 35 34 33 33 32 33 34 34 33 32 32 33 33 33 34 33 32 32 33 33 34 34 35 34 34 34 35 34 34 34 34 34 34 34 34 34 34 34 34 35 35 35 36 37 37 38 38 39 40 40 41 42 43 44 44 45 46 47 48 49 50 50 51 52 52 53
Wind_Direction
274 272 271 270 269 268 266 265 264 263 262 261 260 260 259 259 258 257 256 255 254 254 254 254 254 254 253 252 251 250 250 250 250 250 250 250 249 249 249 249 249 249 249 249 249 248 247 246 245 245 245 246 246 247 247 248 248 248 248 249 249 249 249 249 249 247 247 248 247 247 246 246 245 244 244 244 244 244 244 244 244 244 244 245 246
274 273 272 271 270 269 268 266 265 264 263 262 261 260 259 259 258 258 257 256 255 254 253 253 253 254 254 254 253 252 251 250 249 249 249 250 250 249 249 249 249 249 248 248 248 248 247 247 246 245 245 245 246 246 247 247 247 247 247 248 249 249 249 249 249 248 247 247 248 247 247 246 246 245 245 245 245 245 245 245 244 243 243 244 245
275 274 273 272 271 270 268 267 266 265 264 263 262 261 260 259 258 257 257 257 256 255 254 253 253 253 253 253 253 254 253 252 251 250 249 249 249 249 249 249 249 249 249 248 248 248 247 247 246 246 245 245 245 246 246 247 247 247 247 247 248 248 249 249 249 249 248 248 248 248 247 247 246 246 245 245 245 246 246 246 246 245 244 244 244
276 275 274 273 272 271 269 268 267 266 265 264 263 262 260 260 259 258 257 257 257 257 256 255 254 253 252 252 252 253 253 253 253 252 251 250 249 249 249 249 249 249 249 249 249 248 248 247 246 245 245 245 245 245 245 246 247 247 247 247 247 247 248 248 248 248 248 248 248 249 248 248 247 246 246 245 245 246 246 247 248 247 245 244 244
277 275 274 273 271 271 270 269 268 268 267 266 265 263 262 261 260 259 258 257 257 257 257 256 256 255 254 253 252 252 252 252 253 253 253 252 251 250 249 249 249 249 249 249 249 249 248 248 247 246 245 245 245 245 245 245 246 247 247 247 247 247 247 247 248 248 248 248 248 248 249 248 248 247 247 246 246 246 246 247 248 248 248 246 245
277 276 274 273 271 270 270 269 268 268 267 267 266 265 264 262 261 260 259 258 258 257 256 256 256 255 255 254 253 252 252 251 252 252 253 253 253 252 250 250 249 249 249 249 249 249 249 248 248 247 246 245 245 245 245 245 245 245 246 247 247 247 247 247 247 247 247 247 247 248 248 248 248 248 248 247 247 246 246 246 247 248 249 249 248
279 277 275 273 272 270 269 269 268 267 267 266 266 266 265 264 263 262 260 259 258 257 256 256 255 255 255 254 253 253 252 252 251 251 251 252 252 253 252 252 250 250 249 249 249 249 249 249 248 248 247 246 245 244 244 245 245 245 245 246 247 247 247 247 247 247 246 246 246 247 248 248 248 248 248 248 248 247 247 247 247 247 248 249 250
281 279 277 275 274 272 270 269 268 267 267 267 266 266 265 265 264 263 262 260 259 257 256 256 255 255 254 254 253 253 253 252 252 252 251 251 251 252 252 252 252 252 251 250 249 249 249 249 248 248 248 247 246 245 244 244 244 245 245 245 245 246 247 247 247 247 246 246 245 245 246 247 248 247 248 248 248 248 249 248 248 248 248 248 249
281 279 277 276 275 274 272 270 269 268 268 267 267 266 265 265 264 264 262 261 260 258 257 256 256 255 255 254 254 254 253 253 253 253 252 252 252 251 251 251 252 252 252 251 250 249 249 249 248 248 248 247 246 246 245 244 244 244 244 245 245 245 246 246 247 247 247 246 246 245 245 246 247 247 247 248 248 249 249 249 249 248 248 248 248
282 280 278 276 275 274 273 272 271 270 269 268 267 266 266 265 265 264 263 262 260 259 258 257 256 256 255 255 255 254 254 253 253 253 253 253 252 252 251 251 250 250 251 251 251 250 249 249 248 248 248 247 247 246 246 245 244 244 244 244 244 245 245 245 246 246 246 246 246 245 245 245 246 246 247 247 247 248 248 248 249 249 249 249 249
285 283 281 279 277 275 274 273 272 271 269 268 268 268 267 266 266 265 264 263 261 260 259 258 257 256 256 255 255 255 254 254 254 253 253 252 252 252 252 252 251 251 250 250 251 251 251 250 249 249 248 248 248 247 246 246 245 244 244 244 244 244 244 245 245 245 245 246 246 245 245 245 245 245 246 246 247 247 247 248 248 249 249 249 249
287 285 284 282 280 278 276 275 274 272 270 269 269 268 267 267 266 265 265 264 262 261 260 259 258 257 256 255 255 255 254 254 254 254 253 253 252 252 252 252 252 252 251 251 250 250 250 250 250 249 249 248 248 248 247 247 246 245 244 244 244 244 244 244 244 245 245 245 245 245 245 245 245 245 245 246 246 246 247 247 247 248 249 249 250
289 287 285 283 282 280 279 277 276 274 273 271 270 269 268 267 266 265 265 264 263 262 261 260 259 258 257 256 256 255 254 254 254 253 253 253 253 252 252 251 252 252 252 251 251 250 249 249 249 249 249 248 248 247 247 247 247 246 245 244 244 244 244 244 244 244 244 244 244 244 245 245 245 245 245 245 246 246 246 246 247 247 248 249 249
290 289 286 284 282 281 280 278 277 276 275 273 272 270 269 268 267 266 265 264 263 262 261 261 260 260 259 258 257 256 255 254 253 253 252 253 253 253 252 252 251 251 251 251 251 250 250 249 248 248 248 248 247 247 247 247 246 246 245 245 244 244 243 243 243 243 243 244 244 244 244 244 244 244 244 245 245 246 247 247 247 247 247 248 249
292 290 287 286 284 283 281 279 278 277 275 275 273 272 271 269 268 266 265 264 263 262 261 261 260 260 259 259 258 257 256 255 254 253 252 252 252 252 252 252 251 250 251 251 251 251 250 250 249 248 248 248 247 246 246 246 246 246 245 245 244 244 244 243 243 243 243 243 243 243 243 243 244 244 244 244 244 245 246 246 247 247 247 247 248
293 291 289 288 286 285 283 281 279 278 277 276 275 273 272 270 269 267 266 265 263 262 261 260 260 259 259 258 258 257 257 257 256 255 254 252 252 252 252 251 251 250 250 250 251 251 251 250 250 249 248 248 248 247 246 245 245 245 245 245 244 244 244 244 243 243 243 243 243 242 242 242 242 243 243 243 244 244 245 245 246 247 247 248 248
293 292 290 289 288 287 285 283 281 279 278 276 275 274 273 272 270 269 267 266 264 263 262 260 259 259 258 258 257 257 256 256 257 257 257 255 254 252 251 251 251 250 250 250 250 250 251 251 250 250 249 248 248 248 247 246 245 244 245 245 244 244 243 243 243 243 243 243 242 242 242 241 241 242 242 242 242 243 244 244 245 246 247 248 248
294 293 292 291 290 288 286 284 282 280 279 277 276 275 274 273 272 270 269 267 266 264 263 262 261 259 258 258 257 257 256 256 256 256 256 257 256 255 253 252 251 250 249 249 250 250 250 250 250 250 249 249 248 248 248 246 245 244 243 244 244 244 243 243 243 243 243 242 242 242 241 241 241 241 241 241 241 242 243 244 245 245 246 247 248
296 295 294 293 291 289 286 284 282 281 280 279 277 276 275 274 273 271 270 269 267 266 265 264 262 261 260 258 258 257 257 256 256 255 255 256 256 256 256 255 253 251 250 249 248 249 249 249 250 249 249 248 248 248 248 247 246 244 243 243 243 243 243 243 243 243 243 242 242 242 241 241 241 240 240 240 241 241 242 243 244 244 245 246 247
297 297 296 294 292 289 287 285 283 282 281 280 279 277 276 275 274 273 271 270 268 267 266 265 264 263 262 260 259 257 257 257 256 255 255 255 255 255 256 255 255 254 253 251 249 248 248 248 248 249 249 248 248 248 248 248 248 246 244 243 242 242 242 242 242 242 242 242 242 241 241 241 240 240 240 240 240 240 241 242 243 243 244 245 246
299 298 296 294 292 290 288 287 285 284 282 281 279 278 276 275 274 273 272 271 270 269 267 266 266 265 263 262 261 259 258 257 257 256 255 254 254 254 254 254 255 255 255 254 252 250 249 248 248 248 248 248 248 248 248 248 248 247 245 244 243 242 242 242 242 242 242 242 241 241 241 241 240 240 240 240 240 240 240 241 242 243 243 244 245
300 299 297 294 293 291 289 288 287 286 284 283 281 279 277 275 274 273 272 272 271 270 269 268 267 266 265 263 262 261 259 258 257 257 256 255 254 253 253 253 253 253 254 254 253 253 252 250 249 249 248 248 248 248 248 248 248 248 246 244 243 241 241 241 241 241 241 241 241 241 240 241 240 240 240 239 239 239 240 240 241 242 243 244 244
301 299 297 295 294 292 290 289 287 286 285 284 282 281 279 277 275 274 273 272 272 271 270 269 268 267 266 264 263 262 262 260 259 259 258 256 255 254 253 252 252 252 252 253 253 253 253 252 251 250 250 248 247 247 247 248 248 248 246 245 243 241 240 240 240 240 240 240 240 240 240 240 240 240 240 239 239 239 239 239 240 241 242 243 244
301 299 298 296 295 293 291 290 288 287 286 284 283 282 280 278 277 275 274 274 273 272 271 270 269 269 268 266 264 263 262 262 261 260 260 258 257 255 254 253 252 252 252 252 252 253 253 252 252 251 251 250 249 247 246 245 246 246 246 245 243 242 240 239 239 239 239 240 240 239 239 239 240 240 240 239 239 238 238 238 239 240 241 242 243
302 300 299 298 296 294 293 291 290 289 287 285 283 281 280 279 277 276 275 274 273 272 271 270 270 269 269 268 266 265 263 263 262 261 260 259 258 257 255 254 253 252 252 251 252 252 252 252 252 252 251 251 250 249 247 245 244 244 244 244 243 242 240 239 238 238 239 239 239 239 238 239 239 239 239 239 239 239 238 238 238 238 239 241 242
303 302 301 299 298 296 295 294 292 291 289 287 285 282 281 280 278 276 275 274 273 272 271 271 270 269 269 269 268 267 265 264 262 261 260 260 259 258 256 255 254 253 252 252 251 251 251 251 251 251 251 251 251 250 249 246 244 242 241 241 241 241 240 239 238 238 238 238 238 238 238 238 238 239 239 239 239 239 239 238 238 238 239 239 241
304 303 302 301 299 298 296 295 294 293 291 289 286 284 283 282 280 278 276 274 273 272 271 271 271 270 269 269 269 268 266 264 263 262 261 260 259 258 257 256 255 254 253 252 252 251 251 251 251 251 250 250 250 250 249 247 244 242 240 239 239 239 240 239 239 238 238 238 238 238 238 238 238 238 239 239 239 239 239 239 239 239 239 239 240
305 304 303 301 300 298 297 296 294 293 291 289 287 285 284 283 281 280 279 277 275 274 272 271 271 270 270 269 269 268 267 265 264 262 261 260 259 258 257 257 256 255 254 253 252 251 251 250 250 250 250 250 250 250 249 247 245 242 240 238 237 237 238 239 239 239 238 238 238 238 238 238 238 238 239 239 239 239 240 240 240 239 239 240 240
305 305 304 302 301 299 298 296 295 293 291 289 287 285 284 283 282 281 279 278 278 277 275 273 272 272 271 270 269 268 267 266 265 264 262 261 259 258 257 257 256 255 255 254 253 251 251 250 250 250 250 250 250 249 249 247 246 243 241 239 237 237 237 237 238 238 238 238 238 238 237 237 238 238 239 239 239 239 240 240 240 240 240 240 241
306 306 305 303 302 301 299 298 296 294 292 290 288 286 284 283 283 282 280 279 278 278 278 277 275 274 273 272 271 270 268 267 266 266 264 263 261 259 258 257 256 255 254 253 253 252 251 250 250 250 250 249 249 249 248 248 246 244 241 239 238 237 236 236 237 237 238 238 238 238 237 237 237 238 238 239 239 240 240 240 240 241 241 241 241
307 307 306 304 303 302 300 299 297 295 293 291 289 288 286 284 283 283 283 281 279 278 278 278 277 276 275 274 272 271 270 269 267 267 266 264 263 261 260 258 256 255 254 253 253 251 250 250 249 249 249 249 249 248 248 247 247 245 242 239 238 237 236 236 236 237 238 238 238 238 238 237 238 238 238 239 239 240 240 240 241 241 241 242 242
307 307 306 305 303 302 301 299 298 296 294 292 290 289 288 286 284 283 283 283 283 281 279 279 277 276 276 275 274 273 272 270 269 268 267 266 265 263 261 259 257 256 255 254 252 251 250 249 248 247 247 247 247 247 247 246 246 245 242 240 238 237 236 236 236 237 238 238 238 238 237 237 237 238 238 238 239 239 240 240 241 241 241 242 242
308 307 306 305 304 302 301 299 297 296 294 293 291 289 288 288 287 284 282 281 282 282 281 279 277 276 276 276 275 274 273 271 270 269 268 267 266 264 262 261 259 258 256 254 253 251 250 248 247 247 246 246 246 246 245 245 245 244 242 240 238 237 236 236 236 236 237 237 237 237 237 237 237 237 237 238 238 239 239 240 240 241 241 242 242
308 307 307 305 304 303 301 299 297 295 294 292 291 290 289 288 288 287 283 279 278 280 281 280 278 275 275 276 276 274 273 272 271 270 270 268 267 265 264 262 260 259 257 256 254 252 250 249 247 247 246 246 245 245 244 244 243 243 242 240 238 237 236 236 236 236 237 237 237 237 237 237 237 237 237 238 238 239 239 240 240 241 242 242 242
309 308 307 306 305 303 302 300 298 296 294 293 291 291 290 289 288 288 286 281 277 277 278 279 279 276 274 275 276 274 272 272 271 271 270 269 268 267 265 263 262 260 259 257 255 253 251 250 248 247 246 245 245 244 244 243 242 241 240 239 238 236 235 235 235 236 236 236 236 236 237 237 237 237 237 238 238 239 239 240 241 241 242 243 243
310 309 308 306 305 304 303 302 301 299 297 295 293 292 291 290 289 288 287 283 280 277 276 278 279 277 274 274 275 274 272 271 271 270 270 269 268 267 265 264 262 261 260 258 256 254 252 250 248 247 245 245 244 244 243 243 242 241 239 238 237 236 235 235 235 235 236 236 236 236 236 237 237 237 238 238 238 239 239 240 241 241 242 243 243
310 309 308 307 306 305 304 303 302 300 299 297 296 294 293 292 290 289 287 284 281 280 277 277 278 278 276 274 274 274 273 272 271 270 270 269 268 267 266 264 263 262 260 259 257 255 253 251 249 247 246 245 244 243 243 242 241 240 239 238 237 236 235 235 234 235 235 235 236 236 236 237 237 237 238 238 238 239 239 240 240 241 242 243 244
309 309 308 307 306 305 304 303 302 300 299 298 296 295 294 292 291 289 287 285 282 281 279 277 277 277 277 276 274 273 273 272 271 270 270 269 268 267 266 265 264 262 261 260 258 256 255 253 250 248 246 245 244 243 242 241 241 240 239 238 237 236 235 234 234 234 235 235 235 236 236 236 237 237 238 238 239 239 240 240 241 242 242 243 244
310 309 308 307 306 305 304 303 302 300 298 297 296 295 293 292 291 289 288 286 283 282 281 279 277 276 277 277 275 274 273 272 271 271 269 269 268 267 266 265 263 262 261 260 259 257 256 254 251 249 247 245 244 242 241 241 240 240 239 238 237 236 235 234 234 234 234 234 235 235 235 236 236 237 237 238 239 239 240 241 241 242 243 243 244
310 309 308 307 306 305 304 303 301 299 298 297 296 295 294 292 291 290 288 286 284 283 282 280 278 277 276 276 275 274 273 273 272 271 270 269 268 267 266 264 263 262 261 260 259 258 256 255 253 251 249 246 244 242 241 240 240 239 238 237 236 235 234 234 233 233 233 233 234 234 234 235 235 236 237 237 238 239 240 241 242 242 243 244 245
309 309 308 306 305 304 303 302 300 299 297 296 295 294 293 292 291 290 288 286 284 283 282 281 279 277 276 275 274 274 273 272 272 271 271 269 268 267 266 264 263 262 260 260 259 258 257 256 254 252 250 248 246 243 241 240 240 239 238 237 236 235 234 234 233 233 233 233 233 233 234 234 235 235 236 237 238 238 239 240 241 242 243 244 245
309 308 307 306 305 304 303 302 300 299 297 296 295 294 292 291 290 289 288 286 284 283 282 281 279 278 276 275 274 274 273 272 271 271 270 269 268 267 266 264 263 262 260 259 259 258 257 256 255 253 251 249 247 244 242 241 240 239 238 237 236 236 235 234 234 233 233 233 233 233 234 234 235 235 236 237 237 238 238 239 240 241 242 243 244
309 308 307 306 305 304 303 302 300 299 297 296 295 294 292 290 289 288 287 286 284 283 282 281 280 278 276 275 274 273 272 272 271 270 269 268 267 266 266 265 264 262 261 259 258 257 257 256 255 254 252 250 248 246 244 242 240 239 238 238 237 236 235 235 234 234 234 234 234 234 234 234 235 235 236 237 237 238 238 239 240 241 242 243 244
309 308 307 306 305 304 303 301 300 298 297 296 295 294 292 291 289 288 287 287 285 284 282 281 280 278 276 274 273 272 272 271 270 269 268 267 267 266 264 263 263 262 261 259 258 257 256 255 254 253 252 251 249 248 246 243 241 240 239 238 238 237 237 236 235 235 234 234 234 234 235 235 235 236 236 237 238 238 239 240 241 241 242 243 244
309 308 307 306 305 304 302 301 299 298 297 295 294 293 292 291 290 289 289 288 286 285 283 281 280 278 276 274 272 271 270 270 269 268 267 267 266 265 264 262 261 261 260 259 258 257 256 255 254 253 252 250 249 248 246 245 243 241 239 238 238 238 238 237 236 236 235 235 235 235 235 236 236 237 238 238 239 240 241 241 242 243 244 245 246
310 309 307 306 305 304 302 301 300 298 297 296 294 292 291 290 290 290 289 289 288 286 284 282 280 279 277 275 273 271 269 269 268 267 267 266 265 264 263 262 261 260 259 259 258 256 256 255 254 253 251 250 249 247 246 245 244 242 240 239 237 237 237 237 237 236 236 236 236 236 236 236 237 237 238 239 240 240 241 242 243 244 245 246 247
311 310 308 307 306 304 303 302 300 299 298 297 295 294 292 291 290 289 289 288 287 286 285 283 281 279 277 276 274 272 270 269 268 267 266 265 264 263 262 261 260 259 259 258 257 256 255 254 253 252 251 250 248 247 246 244 243 242 241 239 238 237 236 236 236 236 236 237 237 237 237 238 238 239 239 240 240 241 242 243 243 244 245 246 247
311 310 309 308 307 306 305 304 302 301 299 298 297 296 295 293 292 291 289 288 286 285 285 284 282 279 277 276 275 273 271 269 268 266 265 264 264 263 261 261 259 258 257 257 256 256 255 253 252 252 251 250 248 247 246 244 243 242 241 240 239 237 236 236 235 235 235 236 236 237 237 238 238 239 239 240 241 241 242 243 243 244 245 245 246
311 310 309 308 308 307 306 305 303 302 301 300 298 297 297 296 294 293 291 288 286 284 283 283 282 280 277 276 275 273 272 270 268 267 265 264 263 262 261 260 259 257 256 255 254 254 254 253 252 251 250 249 248 247 245 244 243 242 241 240 239 238 238 237 236 236 236 236 236 236 236 237 237 238 239 239 240 240 241 242 242 243 244 245 245
311 310 309 308 307 306 305 304 303 302 301 300 299 299 298 297 296 294 292 290 287 285 283 281 281 280 278 276 274 272 271 269 268 267 265 263 262 261 260 259 259 257 255 254 253 253 252 252 252 251 250 250 248 247 246 245 243 243 242 241 240 239 239 238 238 237 237 237 236 237 237 237 238 238 239 240 240 241 242 242 243 244 245 246 247
311 310 309 308 306 305 304 303 302 302 301 300 300 299 298 297 296 294 293 291 289 286 284 281 280 279 278 276 274 272 271 269 268 266 265 263 261 260 259 258 258 257 256 254 252 251 251 250 251 251 250 250 249 248 247 246 245 244 242 241 241 240 240 240 239 239 238 238 238 238 238 239 239 240 240 241 242 242 243 244 245 245 246 247 248